Location: Molalla
(45.1473°N, 122.5770°W)
Time: 05:45:29
(UTC-08:00)

Vanguard 1 Rocket - Visible Passes

Search period start: 22 November 2019 00:00
Search period end: 02 December 2019 00:00
Orbit: 651 x 4226 km, 34.3° (Epoch: 21 November)

Date Brightness Start Highest point End Pass type
(mag) Time Alt. Az. Time Alt. Az. Time Alt. Az.
22 Nov 8.7 04:23:09 21° SSE 04:23:09 21° SSE 04:25:50 10° SE visible
22 Nov 9.1 06:42:51 10° SW 06:46:17 18° S 06:50:44 10° SSE visible
23 Nov 8.6 05:33:20 15° SW 05:35:31 20° S 05:39:33 10° SE visible
24 Nov 8.8 04:26:14 19° SSE 04:26:14 19° SSE 04:28:33 10° SE visible
24 Nov 9.2 06:46:43 10° SW 06:49:10 13° SSW 06:52:04 10° SSE visible
25 Nov 8.7 05:36:25 13° SW 05:38:23 17° SSW 05:41:40 10° SSE visible
26 Nov 8.9 04:29:19 17° SSE 04:29:19 17° SSE 04:31:08 10° SE visible
27 Nov 8.9 05:39:30 11° SW 05:41:13 12° SSW 05:43:18 10° S visible
28 Nov 9.1 04:32:25 14° SSE 04:32:25 14° SSE 04:33:32 10° SSE visible
30 Nov 9.3 04:35:32 10° S 04:35:32 10° S 04:35:38 10° SSE visible
